Date,TemperatureHighF,TemperatureAvgF,TemperatureLowF,DewpointHighF,DewpointAvgF,DewpointLowF,HumidityHigh,HumidityAvg,HumidityLow,PressureMaxIn,PressureMinIn,WindSpeedMaxMPH,WindSpeedAvgMPH,GustSpeedMaxMPH,PrecipitationSumIn
2013-10-1,86.7,68.5,56.1,35.1,30.1,24.9,37,26,16,29.94,29.87,0,-999,0,0.00
2013-10-2,81.5,71.1,54.5,42.9,37.8,25.3,64,32,16,29.93,29.83,0,-999,0,0.00
2013-10-3,79.9,61.1,45.7,44.7,32.8,19.8,60,37,16,29.89,29.75,0,-999,0,0.00
2013-10-4,70.2,53.2,42.8,21.9,13.9,4.3,33,22,16,30.14,29.88,0,-999,0,0.00
2013-10-5,75.2,64.0,45.5,25.9,19.7,10.8,24,18,16,30.22,30.12,0,-999,0,0.00
2013-10-6,79.2,71.7,48.4,29.1,23.1,4.3,16,16,16,30.18,30.06,0,-999,0,0.00
2013-10-7,79.7,74.9,69.4,29.5,25.7,21.3,16,16,16,30.02,29.92,0,-999,0,0.00
2013-10-8,73.9,65.7,52.0,38.9,24.5,10.2,53,23,16,29.86,29.71,0,-999,0,0.00
2013-10-13,70.5,66.0,47.5,65.1,54.2,46.4,98,67,51,29.97,29.87,0,-999,0,0.00
2013-10-14,70.7,61.4,52.3,45.7,37.3,29.3,50,41,35,30.05,29.93,0,-999,0,0.00
2013-10-15,70.3,59.1,49.3,41.4,31.5,22.8,36,35,34,30.02,29.92,0,-999,0,0.00
2013-10-16,68.9,58.4,48.7,39.4,29.4,20.9,34,33,31,30.12,30.00,0,-999,0,0.00
2013-10-17,71.2,59.3,48.2,40.6,29.4,19.7,33,32,31,30.05,29.92,0,-999,0,0.00
2013-10-18,73.0,61.3,51.4,42.2,30.7,21.8,33,31,31,29.99,23.90,0,-999,0,0.00
2013-10-19,74.7,61.5,50.9,42.8,30.1,20.6,32,30,29,23.99,23.93,0,-999,0,0.00
2013-10-20,75.6,60.4,52.5,42.8,28.8,21.2,31,30,29,23.96,23.84,0,-999,0,0.00
2013-10-21,75.2,63.1,52.7,41.6,30.7,21.4,30,29,29,23.95,23.88,0,-999,0,0.00
2013-10-22,76.1,62.6,53.8,42.4,30.1,22.3,30,29,29,23.95,23.88,0,-999,0,0.00
2013-10-23,74.7,63.5,55.0,40.3,30.8,23.4,30,29,29,23.89,23.80,0,-999,0,0.00
2013-10-24,74.1,61.1,54.1,39.8,28.6,22.6,30,29,28,23.92,23.84,0,-999,0,0.00
2013-10-25,72.9,61.0,53.8,38.7,28.0,21.5,30,28,28,24.04,23.96,0,-999,0,0.00
2013-10-26,81.7,65.3,55.2,34.5,27.2,22.7,29,24,16,24.06,23.94,0,-999,0,0.00
2013-10-27,78.4,59.2,45.0,43.6,26.6,18.2,95,32,16,23.96,23.67,0,-999,0,0.00
2013-10-28,44.8,40.4,36.9,44.0,38.5,34.9,98,93,88,23.72,23.61,0,-999,0,0.00
2013-10-29,44.1,37.7,36.3,35.3,34.7,34.2,94,89,69,23.76,23.71,0,-999,0,0.00
2013-10-30,57.4,51.0,33.6,33.4,29.6,22.2,85,47,32,23.89,23.83,0,-999,0,0.00
2013-10-31,63.5,51.7,35.1,27.9,18.8,12.7,53,30,16,23.99,23.93,0,-999,0,0.00